"TOA5","AWS1","CR1000","7964","CR1000.Std.14","CPU:AWS1_114.CR1","64363","TBL110"
"TIMESTAMP","RECORD","Wind_spd_WVc(1)","Wind_spd_WVc(2)","Air_Temp_Avg","Humidity_Avg","SW_upper_Wm2_Avg","Rain_Tot","Press_Avg","Issui_Tot","Depth_cm","SR50A_Raw","Quality","Ground_Temp_Avg(1)","Ground_Temp_Avg(2)","SW_lower_Wm2_Avg","Albedo_Avg","SWC_per(1)","SWC_per(2)","Period(1)","Period(2)"
"TS","RN","","","","","","","","","","","","","","","","","","",""
"","","WVc","WVc","Avg","Avg","Avg","Tot","Avg","Tot","Smp","Smp","Smp","Avg","Avg","Avg","Avg","Smp","Smp","Smp","Smp"
"2017-11-26 00:00:00",316141,0.23,174.2,-3.04,71.63,0,0,871.9357,0,16.23,3.034,181,3.869,4.824,0,0,52.38,60.09,33.88,35.7
"2017-11-26 00:10:00",316142,0.233,150.5,-3.164,70.19,0,0,872.0314,0,16.42,3.033,186,3.872,4.825,0,0,52.38,60.09,33.88,35.7
"2017-11-26 00:20:00",316143,0.45,128.8,-2.835,65.79,0,0,872.0012,0,16.73,3.027,185,3.874,4.83,0.003793352,0,52.38,60.09,33.88,35.7
"2017-11-26 00:30:00",316144,0.274,130.1,-2.616,64.71,0,0,872.1658,0,17.92,3.016,194,3.873,4.831,0,0,52.38,60.09,33.88,35.7
"2017-11-26 00:40:00",316145,0.443,145.9,-2.481,63.99,0,0,872.1874,0,16.46,3.03,189,3.873,4.833,0.02655364,0,52.32,60.09,33.87,35.7
"2017-11-26 00:50:00",316146,0.61,150.1,-2.478,65.31,0,0,872.0065,0,17.03,3.025,189,3.873,4.833,0.007586704,0,52.38,60.09,33.88,35.7
"2017-11-26 01:00:00",316147,0.784,150.2,-2.372,66.01,0,0,871.7634,0,16.62,3.025,186,3.88,4.84,0.0151736,0,52.32,60.09,33.87,35.7
"2017-11-26 01:10:00",316148,0.927,148.4,-1.711,62.16,0,0,871.6833,0,16.99,3.02,195,3.881,4.867,0,0,52.38,60.09,33.88,35.7
"2017-11-26 01:20:00",316149,0.734,149.8,-1.771,62.01,0,0,871.6799,0,17.12,3.018,191,3.879,4.87,0,0,52.32,60.03,33.87,35.69
"2017-11-26 01:30:00",316150,0.682,152.8,-1.694,60.54,0,0,871.6805,0,16.6,3.023,181,3.881,4.875,0,0,52.38,60.03,33.88,35.69
"2017-11-26 01:40:00",316151,0.589,146.2,-1.673,58.61,0,0,871.6465,0,16.79,3.022,186,3.882,4.875,0,0,52.38,60.09,33.88,35.7
"2017-11-26 01:50:00",316152,0.715,146.4,-2.039,60.69,0,0,871.5012,0,16.64,3.025,185,3.882,4.875,0,0,52.38,60.03,33.88,35.69
"2017-11-26 02:00:00",316153,0.47,146.7,-1.911,58.69,0,0,871.4057,0,15.62,3.035,180,3.88,4.876,0,0,52.32,60.03,33.87,35.69
"2017-11-26 02:10:00",316154,0.594,160.4,-2.145,60.57,0,0,871.3971,0,17.26,3.02,188,3.878,4.872,0,0,52.32,60.03,33.87,35.69
"2017-11-26 02:20:00",316155,0.394,132.2,-2.185,59.24,0,0,871.3901,0,16.75,3.025,190,3.866,4.853,0,0,52.38,60.03,33.88,35.69
"2017-11-26 02:30:00",316156,0.445,139.8,-2.325,58.89,0,0,871.3942,0,16.6,3.025,198,3.864,4.863,0,0,52.38,60.03,33.88,35.69
"2017-11-26 02:40:00",316157,0.221,115.4,-1.933,54.98,0,0,871.452,0,16.53,3.026,188,3.865,4.841,0,0,52.32,60.03,33.87,35.69
"2017-11-26 02:50:00",316158,0.118,246.9,-1.878,55.4,0,0,871.5761,0,16.2,3.029,181,3.863,4.833,0,0,52.32,60.03,33.87,35.69
"2017-11-26 03:00:00",316159,0.078,328.3,-1.777,52.61,0,0,871.6288,0,15.31,3.038,190,3.861,4.821,0,0,52.32,60.03,33.87,35.69
"2017-11-26 03:10:00",316160,0.322,129.5,-2.843,61.92,0,0,871.605,0,16.77,3.027,186,3.852,4.806,0,0,52.32,60.03,33.87,35.69
"2017-11-26 03:20:00",316161,0.098,43.07,-2.422,57.46,0,0,871.5535,0,16.53,3.027,184,3.848,4.8,0.03034335,0,52.32,60.03,33.87,35.69
"2017-11-26 03:30:00",316162,0.187,199.1,-2.631,60.82,0,0,871.6067,0,16.43,3.032,196,3.855,4.81,0,0,52.32,60.03,33.87,35.69
"2017-11-26 03:40:00",316163,0.113,180.9,-3.221,65.87,0,0,871.6251,0,16.02,3.039,180,3.85,4.824,0,0,52.32,60.03,33.87,35.69
"2017-11-26 03:50:00",316164,0.212,133.5,-3.613,67.97,0,0,871.5939,0,16.45,3.033,178,3.834,4.829,0.03414007,0,52.32,60.03,33.87,35.69
"2017-11-26 04:00:00",316165,0.381,106.6,-2.658,58.31,0,0,871.6543,0,15.76,3.037,181,3.851,4.831,0.4096833,0,52.27,60.03,33.85,35.69
"2017-11-26 04:10:00",316166,0.564,140.5,-3.027,61.25,0,0,871.6532,0,15.95,3.038,181,3.833,4.834,0.06448777,0,52.32,60.03,33.87,35.69
"2017-11-26 04:20:00",316167,0.498,123.6,-3.095,61.07,0,0,871.7029,0,16.53,3.03,192,3.834,4.835,0.007586838,0,52.32,60.03,33.87,35.69
"2017-11-26 04:30:00",316168,0.396,137.9,-2.492,56.72,0,0,871.6215,0,16.75,3.027,190,3.828,4.835,0.04172767,0,52.32,59.97,33.87,35.67
"2017-11-26 04:40:00",316169,0.384,143.1,-2.973,62.13,0,0,871.6943,0,16.37,3.034,186,3.827,4.832,0,0,52.32,59.97,33.87,35.67
"2017-11-26 04:50:00",316170,0.394,131.3,-3.152,62.6,0,0,871.6727,0,16.03,3.036,188,3.828,4.832,0,0,52.32,59.97,33.87,35.67
"2017-11-26 05:00:00",316171,0.489,158.5,-2.95,62.42,0,0,871.6487,0,16.39,3.034,193,3.809,4.834,0,0,52.32,60.03,33.87,35.69
"2017-11-26 05:10:00",316172,0.535,147.4,-2.951,62.08,0,0,871.6064,0,15.71,3.038,176,3.812,4.835,0.01896712,0,52.32,59.97,33.87,35.67
"2017-11-26 05:20:00",316173,0.323,137.9,-2.562,60.27,0,0,871.5912,0,15.43,3.04,187,3.813,4.835,0,0,52.32,59.97,33.87,35.67
"2017-11-26 05:30:00",316174,0.361,148.1,-2.616,61.01,0,0,871.4822,0,15.94,3.033,190,3.805,4.835,0.02276056,0,52.27,59.97,33.85,35.67
"2017-11-26 05:40:00",316175,0.287,123.6,-2.319,58.79,0,0,871.2607,0,15.74,3.035,183,3.838,4.835,0.02655399,0,52.27,59.97,33.85,35.67
"2017-11-26 05:50:00",316176,0.04,82.4,-2.239,58.5,0,0,871.3057,0,15.11,3.042,185,3.848,4.835,0,0,52.32,59.97,33.87,35.67
"2017-11-26 06:00:00",316177,0.262,175,-2.756,63.98,0,0,871.2809,0,15.77,3.04,177,3.823,4.835,0,0,52.27,59.97,33.85,35.67
"2017-11-26 06:10:00",316178,0.183,157.1,-2.864,64.38,0,0,871.2543,0,15.23,3.045,182,3.83,4.835,0,0,52.32,59.97,33.87,35.67
"2017-11-26 06:20:00",316179,0.545,146.1,-3.124,66.81,0,0,871.2252,0,16.1,3.035,185,3.819,4.835,0.07966197,0,52.27,59.97,33.85,35.67
"2017-11-26 06:30:00",316180,0.239,155.1,-2.479,61.62,0,0,871.2131,0,15.48,3.04,184,3.822,4.835,0.3527887,0,52.32,59.97,33.87,35.67
"2017-11-26 06:40:00",316181,0.403,178.6,-3,67.07,0,0,871.2975,0,15.38,3.042,191,3.817,4.835,1.608413,0,52.32,59.97,33.87,35.67
"2017-11-26 06:50:00",316182,0.218,188.4,-2.72,65.05,1.369141,0,871.3386,0,15.88,3.037,190,3.815,4.835,9.787042,8.33,52.27,59.97,33.85,35.67
"2017-11-26 07:00:00",316183,0.27,164.5,-2.675,65.38,2.175659,0,871.3876,0,15.87,3.04,189,3.81,4.834,12.16166,7.343,52.27,59.97,33.85,35.67
"2017-11-26 07:10:00",316184,0.363,175.5,-3.205,70.18,5.814844,0,871.3588,0,15.43,3.042,183,3.831,4.832,20.4577,3.506,52.32,59.97,33.87,35.67
"2017-11-26 07:20:00",316185,0.447,186,-2.651,66.18,6.75124,0,871.3743,0,15.79,3.033,189,3.852,4.834,26.14793,3.885,52.27,59.97,33.85,35.67
"2017-11-26 07:30:00",316186,0.407,174.9,-1.949,61.56,9.568231,0,871.4236,0,15.25,3.036,185,3.882,4.835,34.32664,3.599,52.27,59.97,33.85,35.67
"2017-11-26 07:40:00",316187,0.536,148,-1.681,61.12,13.23109,0,871.2327,0,15.31,3.034,182,3.883,4.829,43.72301,3.324,52.32,59.91,33.87,35.66
"2017-11-26 07:50:00",316188,0.775,146.4,-0.864,54.23,12.39702,0,871.183,0,16.08,3.021,187,3.882,4.814,46.19256,3.739,52.27,59.97,33.85,35.67
"2017-11-26 08:00:00",316189,0.661,146.9,-0.11,51.04,15.80799,0,871.1616,0,15.86,3.022,180,3.854,4.864,54.22297,3.455,52.27,59.97,33.85,35.67
"2017-11-26 08:10:00",316190,0.257,150.3,-0.177,54.12,18.47054,0,871.1439,0,15.24,3.029,188,3.822,4.836,59.45479,3.228,52.32,59.91,33.87,35.66
"2017-11-26 08:20:00",316191,0.104,330.3,-0.118,55.42,22.42698,0,871.1577,0,15.37,3.025,180,3.808,4.88,68.1981,3.05,52.27,59.91,33.85,35.66
"2017-11-26 08:30:00",316192,0.11,305.2,0.184,54.23,22.11839,0,871.1553,0,15.33,3.026,206,3.815,4.868,62.85627,2.952,52.27,59.91,33.85,35.66
"2017-11-26 08:40:00",316193,0.1,233.6,-0.189,66.05,20.49987,0,871.1019,0,15.18,3.03,194,3.81,4.846,62.93044,3.116,52.32,59.91,33.87,35.66
"2017-11-26 08:50:00",316194,0.058,213.2,0.115,71.4,28.79787,0,871.0238,0,15.1,3.027,186,3.814,4.789,85.76482,2.978,52.27,59.91,33.85,35.66
"2017-11-26 09:00:00",316195,0.269,1.716,0.628,56.66,30.96844,0,871.0829,0,15.24,3.023,192,3.814,4.757,77.86823,2.546,52.32,59.91,33.87,35.66
"2017-11-26 09:10:00",316196,0.417,73.42,0.889,57.74,26.90158,0,871.2304,0,15.52,3.019,190,3.795,4.86,76.66572,2.88,52.27,59.91,33.85,35.66
"2017-11-26 09:20:00",316197,0.678,127.8,1.121,57.63,33.49714,0,871.243,0,15.23,3.02,181,3.795,4.898,96.05478,2.882,52.27,59.91,33.85,35.66
"2017-11-26 09:30:00",316198,0.676,132.9,1.194,57.02,28.22301,0,871.1398,0,15.52,3.019,186,3.792,4.872,87.08257,3.098,52.27,59.97,33.85,35.67
"2017-11-26 09:40:00",316199,0.517,112.7,0.912,59.65,42.62949,0,871.0969,0,15.36,3.021,182,3.777,4.867,123.0244,2.894,52.27,59.91,33.85,35.66
"2017-11-26 09:50:00",316200,1.007,140.1,0.87,59.41,41.33543,0,870.9044,0,15.23,3.024,189,3.76,4.847,118.2915,2.85,52.32,59.91,33.87,35.66
"2017-11-26 10:00:00",316201,0.908,136,0.766,58.72,43.64027,0,870.8007,0,15.29,3.022,182,3.745,4.85,120.8595,2.765,52.27,59.91,33.85,35.66
"2017-11-26 10:10:00",316202,0.355,134.1,1.226,58.25,55.5248,0,870.8207,0,15.08,3.02,182,3.716,4.779,153.3303,2.768,52.27,59.91,33.85,35.66
"2017-11-26 10:20:00",316203,0.785,120.6,1.829,56.93,73.25336,0,870.7293,0,15.04,3.018,182,3.768,4.755,170.5573,2.433,52.27,59.91,33.85,35.66
"2017-11-26 10:30:00",316204,0.786,122.5,1.994,57.14,180.6643,0,870.5748,0,15.19,3.017,187,3.795,4.747,168.6074,1.324,52.27,59.85,33.85,35.64
"2017-11-26 10:40:00",316205,0.715,74.44,1.908,55.88,198.953,0,870.7853,0,15.27,3.017,181,3.792,4.744,128.8398,0.648,52.27,59.91,33.85,35.66
"2017-11-26 10:50:00",316206,0.638,130.1,2.244,59.39,288.11,0,870.5535,0,15.19,3.014,178,3.776,4.732,209.0232,0.721,52.27,59.91,33.85,35.66
"2017-11-26 11:00:00",316207,0.683,103.1,2.306,59.61,157.7763,0,870.3913,0,15.24,3.017,173,3.756,4.705,107.9517,0.669,52.27,59.85,33.85,35.64
"2017-11-26 11:10:00",316208,0.506,138.2,1.705,63.43,87.70679,0,870.1951,0,15.48,3.017,180,3.765,4.734,57.06728,0.651,52.27,59.91,33.85,35.66
"2017-11-26 11:20:00",316209,0.581,143.4,1.486,65.8,81.88392,0,869.8427,0,15.38,3.018,173,3.79,4.742,53.76917,0.657,52.27,59.91,33.85,35.66
"2017-11-26 11:30:00",316210,0.4,79.81,1.659,67.5,145.9402,0,869.7347,0,15.4,3.015,173,3.788,4.74,93.99641,0.65,52.27,59.85,33.85,35.64
"2017-11-26 11:40:00",316211,0.366,111.9,1.979,67.67,141.4548,0,869.403,0,15.32,3.016,177,3.784,4.741,90.33111,0.64,52.27,59.85,33.85,35.64
"2017-11-26 11:50:00",316212,0.636,147.9,2.029,67.69,156.4311,0,869.0247,0,15.2,3.017,172,3.779,4.743,97.89806,0.626,52.27,59.85,33.85,35.64
"2017-11-26 12:00:00",316213,0.644,131.2,1.692,70.51,50.72187,0,868.8643,0,15.28,3.019,173,3.784,4.743,32.96888,0.65,52.21,59.85,33.84,35.64
"2017-11-26 12:10:00",316214,0.514,134,1.435,72.73,44.85537,0,868.8958,0,15.33,3.019,181,3.79,4.74,29.879,0.667,52.27,59.85,33.85,35.64
"2017-11-26 12:20:00",316215,0.654,104.6,1.345,74.59,43.44344,0,868.7631,0,15.25,3.02,177,3.803,4.737,29.27214,0.674,52.27,59.85,33.85,35.64
"2017-11-26 12:30:00",316216,0.348,16.43,1.347,76.75,52.10524,0,868.6703,0,15.33,3.019,173,3.826,4.74,34.93215,0.671,52.27,59.85,33.85,35.64
"2017-11-26 12:40:00",316217,0.461,51.35,1.583,77.71,95.49097,0,868.624,0,15.24,3.017,172,3.822,4.742,62.53339,0.656,52.27,59.85,33.85,35.64
"2017-11-26 12:50:00",316218,0.445,111.3,1.946,77.42,64.85996,0,868.5293,0,15.22,3.017,177,3.802,4.743,42.96149,0.663,52.21,59.85,33.84,35.64
"2017-11-26 13:00:00",316219,0.319,142.3,1.894,77.28,49.22789,0,868.4189,0,14.99,3.02,177,3.804,4.743,33.06746,0.672,52.21,59.85,33.84,35.64
"2017-11-26 13:10:00",316220,0.288,32.01,1.319,79.92,30.75318,0,868.5002,0,15.07,3.024,175,3.829,4.743,21.21352,0.69,52.21,59.85,33.84,35.64
"2017-11-26 13:20:00",316221,0.321,52.79,0.902,82.7,34.44498,0,868.3516,0,15.31,3.022,185,3.823,4.746,23.38946,0.679,52.27,59.85,33.85,35.64
"2017-11-26 13:30:00",316222,0.226,334,0.992,82.6,26.01951,0,868.1892,0,15.37,3.021,180,3.797,4.75,17.84726,0.686,52.21,59.85,33.84,35.64
"2017-11-26 13:40:00",316223,0.405,341.1,1.025,83.3,17.55865,0,868.244,0,15.29,3.022,190,3.772,4.762,12.16858,0.694,52.21,59.91,33.84,35.66
"2017-11-26 13:50:00",316224,0.474,333,0.833,84.6,15.1407,0,868.2398,0,15.21,3.024,194,3.762,4.775,10.53473,0.696,52.21,59.85,33.84,35.64
"2017-11-26 14:00:00",316225,0.305,60.92,0.859,85.4,15.70685,0,868.3348,0,15.17,3.022,185,3.731,4.793,10.93277,0.696,52.21,59.85,33.84,35.64
"2017-11-26 14:10:00",316226,0.626,140.6,1.314,83.2,17.43283,0,868.4467,0,15.13,3.021,189,3.725,4.793,12.21787,0.701,52.27,59.85,33.85,35.64
"2017-11-26 14:20:00",316227,0.548,159.9,1.452,83,13.65061,0,868.4538,0,15.03,3.021,177,3.71,4.797,9.799313,0.719,52.21,59.85,33.84,35.64
"2017-11-26 14:30:00",316228,0.449,120.1,1.617,83.7,13.54052,0,868.1751,0,15.11,3.02,188,3.706,4.797,10.39826,0.768,52.21,59.79,33.84,35.63
"2017-11-26 14:40:00",316229,0.44,7.652,1.554,84.9,15.08172,0,868.1539,0,14.93,3.022,193,3.704,4.793,11.67957,0.775,52.21,59.85,33.84,35.64
"2017-11-26 14:50:00",316230,0.378,36.96,1.39,86.6,11.81847,0,868.2575,0,15.02,3.023,194,3.705,4.802,9.439182,0.8,52.21,59.79,33.84,35.63
"2017-11-26 15:00:00",316231,0.318,68.14,1.219,88.6,11.53539,0,868.3197,0,15.05,3.023,184,3.705,4.809,9.120752,0.792,52.21,59.79,33.84,35.63
"2017-11-26 15:10:00",316232,0.435,36.41,1.198,89.3,11.73984,0,868.3643,0,15.05,3.023,171,3.705,4.82,9.310293,0.794,52.21,59.79,33.84,35.63
"2017-11-26 15:20:00",316233,0.332,11.32,1.087,90.1,8.700689,0,868.4381,0,14.99,3.025,170,3.705,4.824,7.16089,0.833,52.21,59.85,33.84,35.64
"2017-11-26 15:30:00",316234,0.233,37.61,0.825,92.1,4.56855,0,868.4908,0,15.06,3.026,172,3.706,4.828,4.276063,0.938,52.21,59.85,33.84,35.64
"2017-11-26 15:40:00",316235,0.265,126.5,0.635,93.9,3.14137,0,868.5729,0,15.16,3.025,174,3.705,4.827,3.279073,1.047,52.16,59.85,33.83,35.64
"2017-11-26 15:50:00",316236,0.318,139.5,0.697,94.6,4.59214,0,868.6256,0,14.91,3.027,171,3.705,4.82,4.249527,0.957,52.21,59.85,33.84,35.64
"2017-11-26 16:00:00",316237,0.545,140.3,0.683,95.3,4.894875,0,868.4865,0,15,3.027,175,3.705,4.804,4.132012,0.851,52.21,59.79,33.84,35.63
"2017-11-26 16:10:00",316238,0.745,142.2,0.644,96,4.104619,0,868.2885,0,14.96,3.027,171,3.705,4.814,3.529269,0.879,52.21,59.79,33.84,35.63
"2017-11-26 16:20:00",316239,0.72,131.8,0.735,96.2,1.399659,0,868.5098,0,15.08,3.025,187,3.705,4.808,1.736203,1.262,52.21,59.79,33.84,35.63
"2017-11-26 16:30:00",316240,0.484,130.9,0.747,96.5,0.1611967,0,868.6951,0,14.98,3.026,192,3.705,4.817,0.8718923,0.991,52.21,59.79,33.84,35.63
"2017-11-26 16:40:00",316241,0.491,126.6,0.732,96.9,0,0,868.9058,0,15.01,3.026,192,3.705,4.774,0.5420896,0,52.21,59.79,33.84,35.63
"2017-11-26 16:50:00",316242,0.672,120.9,0.744,97.1,0,0,868.8426,0,15.01,3.026,192,3.705,4.757,0.4511095,0,52.16,59.79,33.83,35.63
"2017-11-26 17:00:00",316243,0.745,131,0.714,97.8,0,0,868.7309,0,14.91,3.027,192,3.705,4.757,0.2274502,0,52.21,59.79,33.84,35.63
"2017-11-26 17:10:00",316244,0.624,141.2,0.628,99.4,0,0,868.5308,0,14.91,3.027,192,3.705,4.751,0.06823505,0,52.21,59.79,33.84,35.63
"2017-11-26 17:20:00",316245,0.621,146.5,0.66,100,0,0,868.5729,0,14.88,3.027,192,3.705,4.74,0.2615677,0,52.21,59.79,33.84,35.63
"2017-11-26 17:30:00",316246,0.559,144.1,0.747,100,0,0,868.6825,0,14.88,3.027,192,3.706,4.738,0.3222211,0,52.16,59.79,33.83,35.63
"2017-11-26 17:40:00",316247,0.336,126.9,0.724,100,0,0,868.9774,0,14.81,3.027,194,3.706,4.738,0.4511095,0,52.21,59.79,33.84,35.63
"2017-11-26 17:50:00",316248,0.434,93.9,0.735,100,0,0,869.0912,0,14.68,3.029,193,3.706,4.741,0.3980378,0,52.21,59.79,33.84,35.63
"2017-11-26 18:00:00",316249,0.269,114.1,0.738,100,0,0,869.1017,0,14.66,3.029,192,3.706,4.742,0.4245737,0,52.21,59.79,33.84,35.63
"2017-11-26 18:10:00",316250,0.314,135.7,0.776,100,0,0,869.0406,0,14.66,3.029,193,3.706,4.74,0.4359462,0,52.16,59.79,33.83,35.63
"2017-11-26 18:20:00",316251,0.355,97.3,0.83,100,0,0,869.3588,0,14.69,3.028,193,3.705,4.741,0.4207829,0,52.21,59.79,33.84,35.63
"2017-11-26 18:30:00",316252,0.202,68.29,0.892,100,0,0,869.2724,0,14.59,3.029,192,3.705,4.712,0.4435278,0,52.16,59.79,33.83,35.63
"2017-11-26 18:40:00",316253,0.416,79.53,0.987,100,0,0,869.2366,0,14.66,3.028,193,3.705,4.734,0.4511095,0,52.16,59.79,33.83,35.63
"2017-11-26 18:50:00",316254,0.38,95.3,0.885,100,0,0,869.0154,0,14.51,3.03,189,3.705,4.724,0.3222211,0,52.21,59.73,33.84,35.62
"2017-11-26 19:00:00",316255,0.59,55.17,1.023,100,0,0,869.1038,0,14.42,3.03,195,3.705,4.725,0.4549004,0,52.16,59.73,33.83,35.62
"2017-11-26 19:10:00",316256,0.567,56.03,1.108,100,0.03145302,0,869.1059,0,14.22,3.031,177,3.706,4.735,0.4814362,0.337,52.16,59.73,33.83,35.62
"2017-11-26 19:20:00",316257,0.617,96.9,1.179,100,0.01965814,0,869.0786,0,14.37,3.03,186,3.705,4.734,0.6216972,0.209,52.16,59.79,33.83,35.63
"2017-11-26 19:30:00",316258,0.528,115,1.186,100,0,0,869.0364,0,14.27,3.031,182,3.705,4.728,0.8756832,0,52.16,59.79,33.83,35.63
"2017-11-26 19:40:00",316259,0.311,338.5,1.199,100,0.01179488,0,869.1396,0,14.13,3.031,181,3.705,4.731,0.9135916,0.145,52.16,59.79,33.83,35.63
"2017-11-26 19:50:00",316260,0.185,8.06,1.253,100,0.0589744,0,869.4326,0,14.06,3.034,179,3.705,4.734,1.171368,1.077,52.16,59.79,33.83,35.63
"2017-11-26 20:00:00",316261,0.127,299.5,0.705,100,0,0,869.5611,0.5,14,3.037,169,3.708,4.738,0.5610438,0,52.16,59.79,33.83,35.63
"2017-11-26 20:10:00",316262,0.028,227.2,0.389,100,0,0.5,869.6559,0.5,14.05,3.038,182,3.715,4.722,0.02274502,0,52.16,59.79,33.83,35.63
"2017-11-26 20:20:00",316263,0.009,253.5,0.299,100,0,0,869.7697,0.5,13.85,3.04,186,3.719,4.695,0,0,52.16,59.79,33.83,35.63
"2017-11-26 20:30:00",316264,0.098,221.7,0.26,100,0,0,869.9403,0,13.55,3.043,167,3.741,4.694,0,0,52.16,59.73,33.83,35.62
"2017-11-26 20:40:00",316265,0.038,184.4,0.233,100,0,0,869.8918,0,13.7,3.041,182,3.758,4.679,0,0,52.16,59.73,33.83,35.62
"2017-11-26 20:50:00",316266,0.31,184.5,0.349,100,0,0,870.2121,0,13.75,3.041,170,3.769,4.676,0.04549004,0,52.21,59.79,33.84,35.63
"2017-11-26 21:00:00",316267,0.426,264.3,0.225,100,0,0.5,870.033,0,13.85,3.04,167,3.777,4.671,0,0,52.16,59.73,33.83,35.62
"2017-11-26 21:10:00",316268,0.134,320.3,0.46,100,0,0,870.5323,0,13.77,3.04,171,3.773,4.683,0.3373844,0,52.16,59.79,33.83,35.63
"2017-11-26 21:20:00",316269,0.103,62.89,0.396,100,0,0,870.368,0,13.9,3.039,189,3.783,4.679,0.1099343,0,52.16,59.79,33.83,35.63
"2017-11-26 21:30:00",316270,0,0,0.397,100,0,0.5,870.0478,0,13.95,3.039,188,3.785,4.681,0.05686254,0,52.16,59.73,33.83,35.62
"2017-11-26 21:40:00",316271,0.123,183.6,0.441,100,0,0,869.9551,0,13.95,3.039,189,3.786,4.693,0.1326793,0,52.16,59.79,33.83,35.63
"2017-11-26 21:50:00",316272,0.126,198.5,0.497,100,0,0,870.4291,0,13.76,3.039,173,3.787,4.694,0.2956852,0,52.16,59.79,33.83,35.63
"2017-11-26 22:00:00",316273,0,0,0.574,100,0,0,870.5303,0,13.8,3.039,168,3.787,4.701,0.439737,0,52.16,59.79,33.83,35.63
"2017-11-26 22:10:00",316274,0.401,21.97,0.689,100,0,0,870.3217,0,14.01,3.035,184,3.788,4.706,0.4511095,0,52.16,59.73,33.83,35.62
"2017-11-26 22:20:00",316275,0.727,36.55,0.79,100,0,0,870.5724,0,14.05,3.036,189,3.787,4.702,0.4549004,0,52.16,59.79,33.83,35.63
"2017-11-26 22:30:00",316276,0.467,29.14,0.619,100,0,0,870.7051,0,13.65,3.04,189,3.783,4.696,0.3260119,0,52.16,59.73,33.83,35.62
"2017-11-26 22:40:00",316277,0.481,17.7,0.487,100,0,0.5,870.5366,0,13.75,3.04,168,3.788,4.708,0.1705876,0,52.16,59.79,33.83,35.63
"2017-11-26 22:50:00",316278,0.539,23.78,0.483,100,0,0,870.4944,0.5,14.1,3.036,189,3.79,4.711,0.3563386,0,52.16,59.73,33.83,35.62
"2017-11-26 23:00:00",316279,0.675,1.626,0.738,100,0,0,870.5429,0,14.05,3.036,192,3.789,4.71,0.5572529,0,52.1,59.73,33.81,35.62
"2017-11-26 23:10:00",316280,0.324,133.6,0.736,100,0,0,870.5323,0,13.9,3.038,192,3.789,4.706,0.4549004,0,52.16,59.73,33.83,35.62
"2017-11-26 23:20:00",316281,0.599,303,0.628,100,0,0,870.5323,0,14,3.037,192,3.788,4.72,0.439737,0,52.16,59.73,33.83,35.62
"2017-11-26 23:30:00",316282,0.85,338.9,0.772,100,0,0,870.7051,0,13.89,3.036,192,3.788,4.711,0.6747689,0,52.16,59.73,33.83,35.62
"2017-11-26 23:40:00",316283,0.499,10.84,0.899,97.8,0.02358976,0,870.5598,0,13.81,3.037,190,3.79,4.71,0.9552907,0.482,52.16,59.73,33.83,35.62
"2017-11-26 23:50:00",316284,0.54,297.5,1.012,95.1,0,0,870.5323,0,13.82,3.036,176,3.789,4.715,1.110715,0,52.16,59.73,33.83,35.62
